Location: Melizzano
(41.1500°N, 14.5000°E)
Time: 09:21:19
(UTC+00:00)

Cosmos 1709 Rocket - Pass Details

Date: 02 October 2021
Orbit: 948 x 1002 km, 82.9° (Epoch: 27 October)

Event Time Altitude Azimuth Distance (km) Brightness Sun altitude
Rises 02:34:31 0° 358° (N) 3,629 7.2 -27.7°
Reaches altitude 10° 02:37:09 10° 5° (N) 2,683 6.6 -27.2°
Maximum altitude 02:42:59 45° 77° (ENE) 1,282 5.0 -26.2°
Drops below altitude 10° 02:48:50 10° 149° (SSE) 2,692 6.4 -25.1°
Sets 02:51:28 0° 156° (SSE) 3,642 7.1 -24.7°
